West Lebanon, NH

3:09 PM EST on February 08, 2016 (GMT -0500)
Lebanon Municipal

Weather History for KLEB - June, 2013

Change the Weather History Date:

Monday, June 3, 2013

  Actual Average (KVSF) Record (KVSF)
Temperature  
Mean Temperature 69 °F 60 °F  
Max Temperature 78 °F 72 °F - ()
Min Temperature 57 °F 48 °F - ()
Degree Days  
Heating Degree Days 0 6  
Month to date heating degree days 18  
Since 1 June heating degree days 18  
Since 1 July heating degree days 7441  
Cooling Degree Days 4 1  
Month to date cooling degree days 3  
Year to date cooling degree days 15  
Since 1 June cooling degree days 3  
Growing Degree Days 19 (Base 50)    
Moisture  
Dew Point 55 °F    
Average Humidity 68    
Maximum Humidity 100    
Minimum Humidity 37    
Precipitation  
Precipitation 0.00 in 0.16 in - ()
Month to date precipitation 0.47  
Year to date precipitation 16.74  
Sea Level Pressure  
Sea Level Pressure 29.78 in    
Wind  
Wind Speed 4 mph (SW)    
Max Wind Speed 13 mph    
Max Gust Speed 21 mph    
Visibility 9 miles    
Events      
T = Trace of Precipitation, MM = Missing Value Source: NWS Daily Summary

Daily Weather History Graph

Daily Weather History Graph

Search for Another Location

Airport or City:

Trip Planner

Search our weather history database for the weather conditions in past years. The results will help you decide how hot, cold, wet, or windy it might be!

Date:

Astronomy

Jun. 03, 2013 Rise Set
Actual Time 5:09 AM EDT 8:25 PM EDT
Civil Twilight 4:34 AM EDT 9:00 PM EDT
Nautical Twilight 3:48 AM EDT 9:46 PM EDT
Astronomical Twilight 2:53 AM EDT 10:42 PM EDT
Moon 2:14 AM EDT (6/3) 3:46 PM EDT (6/3)
Length of Visible Light 16h 26m
Length of Day
15h 15m
Waning Crescent, 22% of the Moon is Illuminated
Jun 3
Waning Crescent
Jun 8
New
Jun 16
First Quarter
Jun 23
Full
Jun 30
Last Quarter

Hourly Weather History & Observations

Time (EDT) Temp. Dew Point Humidity Pressure Visibility Wind Dir Wind Speed Gust Speed Precip Events Conditions
12:53 AM 64.0 °F 63.0 °F 96% 29.78 in 6.0 mi Calm Calm - N/A   Scattered Clouds
1:08 AM 64.4 °F 62.6 °F 94% 29.80 in 1.8 mi Calm Calm - N/A   Mostly Cloudy
1:16 AM 64.4 °F 64.4 °F 100% 29.80 in 3.0 mi Calm Calm - N/A   Mostly Cloudy
1:53 AM 64.0 °F 63.0 °F 96% 29.76 in 4.0 mi Calm Calm - N/A   Overcast
2:53 AM 64.9 °F 63.0 °F 93% 29.76 in 10.0 mi SSE 5.8 mph - N/A   Mostly Cloudy
3:53 AM 63.0 °F 62.1 °F 97% 29.77 in 7.0 mi Calm Calm - N/A   Clear
4:53 AM 62.1 °F 60.1 °F 93% 29.77 in 9.0 mi South 3.5 mph - N/A   Mostly Cloudy
5:53 AM 61.0 °F 59.0 °F 93% 29.78 in 8.0 mi South 4.6 mph - N/A   Clear
6:53 AM 63.0 °F 60.1 °F 90% 29.79 in 8.0 mi Calm Calm - N/A   Mostly Cloudy
7:53 AM 64.0 °F 61.0 °F 90% 29.79 in 10.0 mi South 3.5 mph - N/A   Clear
8:53 AM 66.9 °F 61.0 °F 81% 29.79 in 10.0 mi SSE 4.6 mph - N/A   Mostly Cloudy
9:53 AM 71.1 °F 59.0 °F 66% 29.79 in 10.0 mi South 9.2 mph - N/A   Partly Cloudy
10:53 AM 73.9 °F 57.0 °F 55% 29.78 in 10.0 mi WSW 5.8 mph - N/A   Scattered Clouds
11:53 AM 75.0 °F 57.0 °F 53% 29.76 in 10.0 mi WSW 9.2 mph - N/A   Partly Cloudy
12:53 PM 75.0 °F 52.0 °F 44% 29.75 in 10.0 mi WSW 9.2 mph - N/A   Scattered Clouds
1:53 PM 78.1 °F 51.1 °F 39% 29.74 in 10.0 mi West 12.7 mph 20.7 mph N/A   Clear
2:53 PM 77.0 °F 48.9 °F 37% 29.74 in 10.0 mi West 9.2 mph - N/A   Clear
3:53 PM 75.0 °F 48.0 °F 38% 29.75 in 10.0 mi SW 11.5 mph 18.4 mph N/A   Partly Cloudy
4:53 PM 73.9 °F 46.9 °F 38% 29.75 in 10.0 mi WSW 10.4 mph - N/A   Clear
5:53 PM 73.0 °F 48.0 °F 41% 29.75 in 10.0 mi SW 10.4 mph - N/A   Clear
6:53 PM 69.1 °F 48.9 °F 49% 29.77 in 10.0 mi WSW 10.4 mph 17.3 mph N/A   Clear
7:53 PM 66.9 °F 48.9 °F 52% 29.78 in 10.0 mi WSW 10.4 mph - N/A   Clear
8:53 PM 64.0 °F 48.0 °F 56% 29.80 in 10.0 mi WSW 8.1 mph - N/A   Clear
9:53 PM 62.1 °F 46.9 °F 58% 29.81 in 10.0 mi WSW 8.1 mph - N/A   Clear
10:53 PM 60.1 °F 46.0 °F 60% 29.81 in 10.0 mi SW 5.8 mph - N/A   Clear
11:53 PM 57.0 °F 46.0 °F 67% 29.83 in 10.0 mi Variable 4.6 mph - N/A   Clear